Regional Weather Roundup
Issued by NWS

Home | Current Version | Previous Version | Graphics & Text | Print | Product List | Glossary On
Versions: 1 2 3 4 5 6 7 8 9 10 11 12 13 14 15 16 17 18 19 20 21 22 23 24 25 26 27
000
ASUS45 KBOI 210710
RWRID

IDAHO REGIONAL WEATHER ROUNDUP
NATIONAL WEATHER SERVICE BOISE ID
100 AM MDT THU SEP 21 2017

NOTE: "FAIR" INDICATES FEW OR NO CLOUDS BELOW 12000 FEET
WITH NO SIGNIFICANT WEATHER AND/OR OBSTRUCTIONS TO VISIBILITY

IDZ012-014-210800-
SOUTHWEST IDAHO


CITY           SKY/WX    TMP DP  RH WIND       PRES   REMARKS
BOISE          CLOUDY    49  44  83 SE6       29.73R
CALDWELL       LGT RAIN  49  46  90 NW8       29.75R
MOUNTAIN HOME  CLOUDY    49  46  90 S6        29.74R
$$

IDZ016-017-210800-
SOUTHCENTRAL IDAHO


CITY           SKY/WX    TMP DP  RH WIND       PRES   REMARKS
BURLEY         RAIN      45  43  93 W7        29.77R
JEROME         LGT RAIN  45  45 100 SW6       29.78S
TWIN FALLS     LGT RAIN  44  44 100 SW8       29.78R
$$

IDZ019>023-210800-
SOUTHEAST IDAHO


CITY           SKY/WX    TMP DP  RH WIND       PRES   REMARKS
IDAHO FALLS    RAIN      46  43  89 S8        29.77F FOG
POCATELLO      RAIN      46  46 100 SW3       29.77S
REXBURG        LGT RAIN  45  44  97 S10       29.75F
$$

IDZ006-010-011-018-031-032-210800-
CENTRAL IDAHO MOUNTAINS


CITY           SKY/WX    TMP DP  RH WIND       PRES   REMARKS
MCCALL         MOCLDY    35  33  92 CALM      29.73S
HAILEY         CLOUDY    43  41  93 SE3       29.77S
STANLEY          N/A     34  33  96 CALM      29.77R
SALMON         CLOUDY    39  37  92 CALM      29.77R
CHALLIS        CLOUDY    40  35  83 NW3       29.73S
$$

IDZ002-004-006-007-026-210800-
NORTHERN IDAHO


CITY           SKY/WX    TMP DP  RH WIND       PRES   REMARKS
LEWISTON       CLOUDY    50  41  71 CALM      29.75S
LOWELL           N/A     47  44  90 CALM      29.80S
COEUR D`ALENE  CLOUDY    43  42  97 S3        29.76R
MULLAN PASS    SNOW      30  29  96 VRB6      29.70S VSB 1/2 WCI  24
$$




USA.gov is the U.S. government's official web portal to all federal, state and local government web resources and services.